Location: Michelbach Markt
(48.1000°N, 15.7500°E)
Time: 06:52:45
(UTC+02:00)

ISS - Visible Passes

Search period start: 06 May 2021 00:00
Search period end: 16 May 2021 00:00
Orbit: 418 x 421 km, 51.6° (Epoch: 05 May)

Date Brightness Start Highest point End Pass type
(mag) Time Alt. Az. Time Alt. Az. Time Alt. Az.
06 May -3.7 02:48:19 78° ENE 02:48:19 78° ENE 02:51:31 10° ENE visible
06 May -2.7 04:21:53 10° WNW 04:25:09 44° N 04:28:25 10° ENE visible
07 May -1.9 02:02:24 26° ENE 02:02:24 26° ENE 02:04:03 10° ENE visible
07 May -2.9 03:35:20 18° W 03:37:38 48° N 03:40:56 10° ENE visible
08 May -0.8 01:16:27 11° ENE 01:16:27 11° ENE 01:16:34 10° ENE visible
08 May -3.2 02:49:24 44° WNW 02:50:08 56° NNW 02:53:28 10° ENE visible
08 May -2.7 04:24:00 10° WNW 04:27:16 46° N 04:30:34 10° E visible
09 May -2.9 02:03:25 48° NE 02:03:25 48° NE 02:06:02 10° ENE visible
09 May -2.6 03:36:30 10° WNW 03:39:45 43° N 03:43:01 10° ENE visible
10 May -1.5 01:17:25 20° ENE 01:17:25 20° ENE 01:18:35 10° ENE visible
10 May -2.7 02:50:22 22° WNW 02:52:13 44° N 02:55:29 10° ENE visible
10 May -3.2 04:25:59 10° WNW 04:29:21 62° NNE 04:32:43 10° E visible
11 May -2.9 02:04:19 45° NNW 02:04:41 48° N 02:07:59 10° ENE visible
11 May -2.9 03:38:32 10° WNW 03:41:51 51° NNE 03:45:10 10° E visible
12 May -2.4 01:18:13 37° NE 01:18:13 37° NE 01:20:31 10° ENE visible
12 May -2.7 02:51:09 11° WNW 02:54:20 46° N 02:57:36 10° E visible
12 May -3.8 04:27:56 10° WNW 04:31:18 74° SSW 04:34:40 10° ESE visible
13 May -1.4 00:32:03 18° ENE 00:32:03 18° ENE 00:33:03 10° ENE visible
13 May -2.6 02:04:58 22° WNW 02:06:47 43° N 02:10:03 10° ENE visible
13 May -3.7 03:40:27 10° WNW 03:43:51 81° NNE 03:47:14 10° ESE visible
14 May -2.6 01:18:34 38° NW 01:19:14 44° N 01:22:30 10° ENE visible
14 May -3.3 02:53:00 10° WNW 02:56:23 63° NNE 02:59:44 10° E visible
14 May -3.1 04:29:58 10° WNW 04:33:04 34° SW 04:36:10 10° SSE visible
14 May -1.8 21:17:03 10° SSE 21:18:31 12° SE 21:19:59 10° ESE visible
14 May -3.9 22:51:27 10° SW 22:54:46 63° SSE 22:58:07 10° ENE visible
15 May -2.8 00:28:24 10° W 00:31:42 48° N 00:34:59 10° ENE visible
15 May -2.9 02:05:32 10° WNW 02:08:52 52° NNE 02:12:10 10° E visible
15 May -3.6 03:42:25 10° WNW 03:45:42 50° SSW 03:48:59 10° SE visible
15 May -3.4 22:04:11 10° SW 22:07:22 42° SSE 22:10:36 10° ENE visible
15 May -3.1 23:40:50 10° W 23:44:10 56° NNW 23:47:30 10° ENE visible
